Location: Estes
(46.7777°N, 117.0199°W)
Time: 06:45:48
(UTC+00:00)

Daily predictions for brighter satellites

Satellite Brightness Start Highest point End
(mag) Time Altitude Azimuth Time Altitude Azimuth Time Altitude Azimuth
Cosmos 2026 Rocket 4.4 12:13:24 10° S 12:19:18 58° E 12:25:18 10° NNE
SL-4 R/B 4.3 12:33:59 16° ESE 12:33:59 16° ESE 12:34:44 10° ESE
ATLAS 2AS CENTAUR R/B 4.1 12:27:45 10° S 12:34:04 36° ESE 12:40:16 10° NE
Cosmos 2058 Rocket 3.9 12:35:33 47° SE 12:35:33 47° SE 12:38:52 10° SSE
SL-16 R/B 2.8 12:36:15 45° S 12:36:15 45° S 12:40:13 10° SSE
Cosmos 2082 Rocket 4.0 12:38:21 18° N 12:38:21 18° N 12:39:59 10° NNE
Meteor 2-20 4.3 12:37:30 36° N 12:40:09 88° E 12:46:13 10° S
SKYMED 2 4.0 12:37:12 10° SSE 12:41:27 59° ENE 12:41:32 59° ENE
COSMOS 2406 4.2 12:44:06 32° N 12:44:06 32° N 12:47:26 10° NNE
Cosmos 1814 Rocket 4.5 12:37:14 10° S 12:42:23 60° ESE 12:47:37 10° NNE
Cosmos 1428 Rocket 4.4 12:45:59 63° WNW 12:45:59 63° WNW 12:51:57 10° N
Cosmos-2242 3.6 12:48:41 50° SSE 12:48:41 50° SSE 12:51:51 10° SSE
NOSS 3-1 (A) 4.0 12:46:29 49° WNW 12:48:42 72° SW 12:57:37 10° SSE
Meteor 2-3 Rocket 3.8 12:51:46 57° NW 12:51:46 57° NW 12:56:35 10° N
COSMO-SKYMED 1 3.2 12:48:31 10° SSE 12:52:30 50° ENE 12:53:52 34° NNE
Cosmos 1092 Rocket 3.9 12:46:15 10° S 12:52:30 89° E 12:58:45 10° N
Meteor 2-2 Rocket 4.2 12:49:56 29° N 12:53:01 89° ENE 12:58:52 10° S
Meteor 1-26 Rocket 4.1 12:55:32 35° NNW 12:58:03 81° W 13:03:50 10° S
USA 234 3.9 12:54:13 10° NE 13:00:11 39° N 13:01:43 34° NW
Cosmos 2278 4.0 13:01:19 45° SW 13:01:19 45° SW 13:06:04 10° S
Meteor 2-20 Rocket 4.2 12:56:24 17° N 13:00:57 90° W 13:06:41 10° S
Cosmos 2195 Rocket 4.5 12:58:45 10° SSW 13:04:56 57° WNW 13:11:11 10° N
CZ-4 R/B 3.7 13:02:22 10° NNE 13:07:01 81° ESE 13:11:37 10° SSW
ISS -0.7 13:09:51 10° S 13:11:52 15° SE 13:13:53 10° E
Orbus 7S? 3.3 13:16:22 49° E 13:16:22 49° E 13:18:39 10° ESE
SL-24 R/B 4.1 13:12:03 10° N 13:17:07 78° WNW 13:21:30 10° SSW
Cosmos 1626 Rocket 3.5 13:16:46 10° S 13:21:11 89° E 13:25:35 10° N
Cosmos 2360 Rocket 2.2 13:19:26 39° WNW 13:21:12 54° WSW 13:26:38 10° S
FengYun 1-2 T 4.5 13:22:28 10° N 13:27:49 45° WNW 13:33:08 10° SW
Cosmos 2237 Rocket 4.1 13:31:12 10° N 13:35:44 24° NE 13:40:15 10° E
Cosmos 2219 Rocket 2.1 13:32:10 23° NW 13:35:46 69° WSW 13:41:20 10° SSE
IRIDIUM 106 4.2 13:30:59 10° S 13:36:12 84° W 13:41:28 10° N
Cosmos 2151 3.3 13:32:10 10° S 13:36:12 65° E 13:40:18 10° NNE
Cosmos 1833 4.1 13:33:00 10° SW 13:38:38 67° WNW 13:44:21 10° NNE
Cosmos 1125 Rocket 3.5 13:34:28 15° NNW 13:38:54 86° ENE 13:44:06 10° SSE
Cosmos 2333 Rocket 3.1 13:38:26 27° W 13:39:04 28° WSW 13:43:49 10° SSW
NOAA 12 4.1 13:34:18 10° N 13:39:25 53° WNW 13:44:30 10° SW
Cosmos 1484 Rocket 2.5 13:37:34 10° NNE 13:40:57 75° ESE 13:44:18 10° S
Helios 1A Rocket 2.6 13:39:04 10° S 13:42:17 48° WSW 13:42:53 42° WNW
SeaSat 1 4.1 13:41:54 10° N 13:44:05 16° NNW 13:44:05 16° NNW
Cosmos 2322 Rocket 3.0 13:45:42 26° WNW 13:47:28 31° WSW 13:52:21 10° SSW
ATLAS 3B R/B 3.3 13:41:28 14° NW 13:48:23 65° NE 13:55:50 10° SE
Cosmos 1812 Rocket 3.4 13:51:25 10° NNW 13:55:45 72° W 14:00:04 10° S
IRS-1D 4.1 13:52:29 10° N 13:57:00 34° WNW 14:01:34 10° SW
Cosmos 2221 2.3 13:53:45 10° NNW 13:57:51 64° W 14:01:56 10° S
BREEZE-M DEB (TANK) 3.7 13:55:46 10° SW 13:58:02 38° SSE 14:00:40 10° ENE
Cosmos 1437 Rocket 2.3 13:55:57 13° NNW 13:58:57 73° W 14:02:25 10° S
Cosmos 1602 Rocket 3.5 13:56:30 10° SSW 14:00:55 67° W 14:05:20 10° N
Cosmos 2322 3.7 13:58:53 10° NNW 14:04:35 85° ENE 14:10:16 10° SSE
Cosmos 1842 3.0 14:01:18 10° N 14:04:37 71° E 14:07:54 10° SSE
BREEZE-M DEB (TANK) 4.2 13:51:21 14° W 14:07:20 74° N 14:11:55 10° E
SL-4 R/B 3.3 14:07:42 14° WSW 14:08:40 16° SW 14:10:44 10° S
Okean 1-7 Rocket 3.5 14:08:27 10° SSW 14:12:56 73° W 14:17:24 10° N
IGS 5A 3.4 14:10:30 10° N 14:14:25 53° WNW 14:18:18 10° SSW
NOSS 0 Rocket 4.2 14:09:36 10° NNW 14:15:52 72° ENE 14:22:04 10° SE
KORONAS-FOTON 3.7 14:15:26 10° NNW 14:18:41 46° W 14:21:55 10° S
Meteor 1-19 Rocket 4.4 14:13:01 10° NNW 14:18:46 60° W 14:24:37 10° S
ARIANE 5 R/B 3.2 14:14:29 10° NNE 14:19:40 60° ESE 14:24:48 10° S
Cosmos 1743 3.4 14:17:12 10° SW 14:19:53 23° WNW 14:22:34 10° NNW
Meteor 1-10 Rocket 4.4 14:14:40 10° NNW 14:20:31 63° W 14:26:22 10° S
ATLAS 2AS CENTAUR R/B 2.8 14:17:48 10° SW 14:24:44 59° NW 14:31:31 10° NE
CORIOLIS 4.2 14:19:39 10° NNE 14:25:05 89° WNW 14:30:30 10° SSW
Cosmos 1953 Rocket 4.0 14:21:47 10° S 14:26:04 66° E 14:30:25 10° NNE
COSMO-SKYMED 1 4.0 14:25:29 10° SW 14:28:05 16° W 14:30:11 12° WNW
Cosmos 2315 Rocket 4.0 14:23:18 10° NNW 14:29:39 75° W 14:35:54 10° S
COSMOS 2428 2.7 14:25:12 10° NNW 14:30:53 71° WSW 14:36:33 10° SSE
IRS-1C 4.5 14:27:12 10° NNE 14:32:33 73° ESE 14:37:51 10° S
Cosmos 1825 Rocket 3.6 14:28:56 10° SSW 14:33:18 61° W 14:37:40 10° N
Cosmos 1076 Rocket 3.5 14:31:04 10° S 14:35:17 89° WSW 14:39:34 10° N
Cosmos 1707 3.3 14:34:03 10° NW 14:36:41 25° W 14:39:17 10° SSW
Cosmos 1818 4.2 14:31:23 10° NNW 14:36:43 52° NE 14:42:01 10° SE
S3M 4.2 14:31:00 10° NNW 14:36:56 51° W 14:42:47 10° SSW
ARIANE 6 FM1 Upper Stage 2.7 14:33:27 10° SW 14:37:30 83° SE 14:41:29 10° NE
CBERS-1 4.3 14:33:35 10° N 14:38:27 46° WNW 14:43:16 10° SW
Cosmos 2150 Rocket 4.1 14:35:59 10° NNW 14:41:26 76° WSW 14:46:47 10° SSE
Cosmos 773 Rocket 3.9 14:36:49 10° SSW 14:41:54 69° WNW 14:47:04 10° NNE
USA 234 4.0 14:36:19 10° ENE 14:42:19 40° NNE 14:48:19 10° NW
CZ-2D R/B 2.8 14:40:49 10° N 14:43:56 56° WNW 14:47:02 10° SSW
ATLAS CENTAUR R/B 3.5 14:42:26 10° S 14:45:15 26° ESE 14:48:06 10° ENE
Cosmos 1655 Rocket 4.0 14:39:20 10° SSW 14:45:41 77° W 14:52:00 10° N
Cosmos 1805 3.7 14:42:32 10° S 14:45:49 54° E 14:49:06 10° NNE
BREEZE-M DEB (TANK) 2.8 14:43:39 10° WNW 14:46:03 47° N 14:48:24 10° E
SPOT 1/Viking Rocket 4.4 14:41:30 10° NNE 14:46:37 56° E 14:51:38 10° S
SAR-Lupe-4 3.5 14:43:05 10° N 14:46:38 66° WNW 14:50:09 10° SSW
AQUARIUS 4.1 14:43:02 10° NNE 14:47:28 85° WNW 14:51:53 10° SSW
Cosmos 1570 Rocket 4.3 14:42:28 10° SW 14:47:34 47° WNW 14:52:44 10° NNE
YAOGAN 1 4.2 14:43:41 10° NNE 14:47:42 39° E 14:51:41 10° SSE
ISS -3.6 14:44:49 10° WSW 14:48:12 83° SSE 14:51:36 10° ENE
SJ-6F 4.4 14:48:51 10° NNE 14:52:56 83° WNW 14:57:00 10° SSW
Cosmos 1238 Rocket 3.2 14:51:16 10° NW 14:53:42 25° W 14:56:11 10° SSW
NOSS 5 (C) 4.4 14:50:25 10° NW 14:53:50 84° NE 14:57:07 10° SE
BREEZE-M DEB (TANK) 3.3 14:52:05 10° SW 14:54:58 50° SSE 14:57:12 10° ENE
Cosmos 1066 Rocket 4.4 14:51:07 10° N 14:56:35 80° ENE 15:02:08 10° SSE
